GW5433 Weather Reports


time (UTC)temp
F
wind
direction
speed
knots
gust
knots
rain 1hr
in
rain 24hr
in
rain mn
in
humidity
%
barometer
mb
20260510093507 75 125 0.0 4.3 0.00 0.00 0.00 90 1011.4
20260510093020 75 155 0.9 4.3 0.00 0.00 0.00 91 1011.4
20260510092507 75 255 0.0 3.5 0.00 0.00 0.00 91 1011.5
20260510092012 75 228 0.0 2.6 0.00 0.00 0.00 91 1011.6
20260510091528 75 164 0.0 2.6 0.00 0.00 0.00 91 1011.6
20260510091011 75 41 0.0 2.6 0.00 0.00 0.00 91 1011.5
20260510090509 75 250 0.0 1.7 0.00 0.00 0.00 91 1011.5
20260510090028 75 184 0.0 1.7 0.00 0.00 0.00 91 1011.5
20260510085511 75 165 0.0 0.0 0.00 0.00 0.00 91 1011.5
20260510085003 74 203 0.0 0.0 0.00 0.00 0.00 91 1011.4
20260510084516 74 155 0.0 2.6 0.00 0.00 0.00 91 1011.4
20260510084008 74 193 0.0 4.3 0.00 0.00 0.00 92 1011.3
20260510083508 74 278 0.0 4.3 0.00 0.00 0.00 92 1011.2
20260510083018 74 233 0.0 6.1 0.00 0.00 0.00 92 1011.1
20260510082508 74 232 0.9 6.1 0.00 0.00 0.00 92 1011.1
20260510082010 74 240 0.9 4.3 0.00 0.00 0.00 92 1011.1
20260510081522 74 237 0.0 2.6 0.00 0.00 0.00 92 1011.1
20260510081006 74 212 0.9 1.7 0.00 0.00 0.00 92 1011.1
20260510080508 74 167 0.0 3.5 0.00 0.00 0.00 92 1011.1
20260510080025 74 178 0.9 3.5 0.00 0.00 0.00 92 1011.0
20260510075513 74 210 0.0 1.7 0.00 0.00 0.00 92 1011.1
20260510075009 74 229 0.0 2.6 0.00 0.00 0.00 92 1011.0
20260510074528 74 161 0.0 2.6 0.00 0.00 0.00 92 1011.1
20260510074016 74 155 0.0 2.6 0.00 0.00 0.00 92 1011.0
20260510073507 74 123 0.0 0.9 0.00 0.00 0.00 91 1011.1
20260510073018 74 136 0.0 3.5 0.00 0.00 0.00 92 1011.1
20260510072508 74 127 0.0 3.5 0.00 0.00 0.00 91 1011.1
20260510072012 74 19 0.0 0.9 0.00 0.00 0.00 91 1011.2
20260510071521 74 215 0.0 1.7 0.00 0.00 0.00 91 1011.2
20260510071005 74 179 0.0 3.5 0.00 0.00 0.00 91 1011.2
20260510070505 74 167 0.0 3.5 0.00 0.00 0.00 91 1011.2
20260510070009 74 150 0.0 2.6 0.00 0.00 0.00 91 1011.3
20260510065504 74 276 0.0 2.6 0.00 0.00 0.00 91 1011.3
20260510065006 75 264 0.0 2.6 0.00 0.00 0.00 91 1011.3
20260510064522 75 242 0.0 3.5 0.00 0.00 0.00 91 1011.4
20260510064004 75 177 0.0 3.5 0.00 0.00 0.00 91 1011.4
20260510063505 75 221 0.0 0.9 0.00 0.00 0.00 91 1011.4
20260510063014 75 165 0.0 1.7 0.00 0.00 0.00 90 1011.4
20260510062508 75 256 0.0 1.7 0.00 0.00 0.00 90 1011.4
20260510062004 75 186 0.0 2.6 0.00 0.00 0.00 90 1011.4
20260510061523 75 257 0.0 2.6 0.00 0.00 0.00 90 1011.6
20260510061008 75 181 0.0 1.7 0.00 0.00 0.00 89 1011.6
20260510060503 75 187 0.0 3.5 0.00 0.00 0.00 89 1011.6
20260510060008 75 219 0.0 3.5 0.00 0.00 0.00 89 1011.6
20260510055505 75 127 0.0 3.5 0.00 0.00 0.00 88 1011.7
20260510055004 75 145 0.0 2.6 0.00 0.00 0.00 88 1011.5
20260510054506 75 60 0.0 3.5 0.00 0.00 0.00 88 1011.4
20260510054003 75 186 0.0 3.5 0.00 0.00 0.00 88 1011.5
20260510053504 75 207 0.0 4.3 0.00 0.00 0.00 88 1011.5
20260510053018 75 236 0.0 4.3 0.00 0.00 0.00 89 1011.6
20260510052504 75 49 0.9 4.3 0.00 0.00 0.00 89 1011.6
20260510052006 76 220 0.9 3.5 0.00 0.00 0.00 89 1011.8
20260510051514 76 218 0.0 0.0 0.00 0.00 0.00 89 1011.9
20260510051004 76 139 0.0 0.0 0.00 0.00 0.00 88 1012.0
20260510050508 76 203 0.0 0.0 0.00 0.00 0.00 88 1012.2
20260510050023 76 170 0.0 0.0 0.00 0.00 0.00 88 1012.3
20260510045514 76 124 0.0 0.0 0.00 0.00 0.00 87 1012.3
20260510045005 76 133 0.0 0.0 0.00 0.00 0.00 87 1012.3
20260510044514 76 26 0.0 0.0 0.00 0.00 0.00 87 1012.2
20260510044003 76 314 0.0 0.0 0.00 0.00 0.00 86 1012.2
20260510043503 76 105 0.0 0.0 0.00 0.00 0.00 86 1012.3
20260510043008 76 121 0.0 0.0 0.00 0.00 0.00 85 1012.2
20260510042504 76 203 0.0 1.7 0.00 0.00 0.00 85 1012.1
20260510042003 76 148 0.0 1.7 0.00 0.00 0.00 84 1012.0
20260510041516 77 110 0.0 0.0 0.00 0.00 0.00 83 1012.0
20260510041004 77 106 0.0 1.7 0.00 0.00 0.00 82 1012.0
20260510040503 77 116 0.0 1.7 0.00 0.00 0.00 82 1012.0
20260510040017 77 131 0.0 0.0 0.00 0.00 0.00 80 1012.1
20260510035504 77 162 0.0 0.0 0.00 0.00 0.00 79 1012.0
20260510035008 78 224 0.0 1.7 0.00 0.00 0.00 79 1012.0
20260510034526 78 212 0.0 1.7 0.00 0.00 0.00 78 1011.9
20260510034009 78 212 0.0 1.7 0.00 0.00 0.00 78 1011.9
20260510033512 78 162 0.0 1.7 0.00 0.00 0.00 77 1012.2
20260510033007 78 179 0.0 2.6 0.00 0.00 0.00 77 1012.3
20260510032503 78 89 0.0 2.6 0.00 0.00 0.00 77 1012.2
20260510032005 78 229 0.0 3.5 0.00 0.00 0.00 76 1012.4
20260510031508 78 59 0.0 3.5 0.00 0.00 0.00 75 1012.4
20260510031003 79 146 0.0 3.5 0.00 0.00 0.00 74 1012.1
20260510030503 79 129 0.0 0.9 0.00 0.00 0.00 73 1012.1
20260510030023 79 257 0.0 2.6 0.00 0.00 0.00 72 1011.8
20260510025504 79 346 0.0 3.5 0.00 0.00 0.00 72 1011.6
20260510025006 79 167 0.0 3.5 0.00 0.00 0.00 71 1011.5
20260510024521 79 204 0.0 0.9 0.00 0.00 0.00 70 1011.4
20260510024008 80 136 0.0 3.5 0.00 0.00 0.00 69 1011.2
20260510023514 80 70 0.0 3.5 0.00 0.00 0.00 68 1011.0
20260510023022 80 174 0.0 3.5 0.00 0.00 0.00 66 1010.8
20260510022509 80 199 0.9 3.5 0.00 0.00 0.00 66 1010.7
20260510022011 80 244 0.0 2.6 0.00 0.00 0.00 66 1010.7
20260510021517 81 48 0.0 1.7 0.00 0.00 0.00 64 1010.7
20260510021003 81 212 0.0 1.7 0.00 0.00 0.00 63 1010.3
20260510020504 81 222 0.0 1.7 0.00 0.00 0.00 62 1010.1
20260510020012 81 92 0.0 0.9 0.00 0.00 0.00 62 1009.9
20260510015507 81 156 0.0 0.9 0.00 0.00 0.00 62 1009.9
20260510015004 81 137 0.0 0.9 0.00 0.00 0.00 61 1010.0
20260510014518 82 76 0.0 0.9 0.00 0.00 0.00 60 1009.8
20260510014005 82 301 0.0 2.6 0.00 0.00 0.00 59 1009.7
20260510013505 82 228 0.0 2.6 0.00 0.00 0.00 59 1009.3
20260510013021 83 251 0.0 3.5 0.00 0.00 0.00 58 1009.3
20260510012509 83 219 0.0 4.3 0.00 0.00 0.00 57 1009.2
20260510012009 83 259 0.9 5.2 0.00 0.00 0.00 57 1009.2
20260510011524 84 201 1.7 5.2 0.00 0.00 0.00 57 1008.8
20260510011008 84 246 0.0 3.5 0.00 0.00 0.00 58 1008.9
20260510010510 84 113 0.9 6.1 0.00 0.00 0.00 58 1008.6
20260510010010 84 184 0.9 6.1 0.00 0.00 0.00 61 1008.5
20260510005504 84 129 1.7 4.3 0.00 0.00 0.00 63 1008.6
20260510005003 84 174 0.0 0.9 0.00 0.00 0.00 59 1008.9
20260510004516 84 210 0.0 0.0 0.00 0.00 0.00 64 1008.8
20260510004009 84 148 0.0 0.0 0.00 0.00 0.00 64 1008.9
20260510003507 85 148 0.0 0.0 0.00 0.00 0.00 63 1009.0
20260510003020 85 148 0.0 0.0 0.00 0.00 0.00 63 1008.9
20260510002507 85 148 0.0 0.0 0.00 0.00 0.00 62 1008.7
20260510002007 85 148 0.0 0.0 0.00 0.00 0.00 62 1008.6
20260510001524 86 148 0.0 0.0 0.00 0.00 0.00 60 1008.6
20260510001008 86 149 0.0 0.0 0.00 0.00 0.00 60 1008.5
20260510000508 86 140 0.0 0.0 0.00 0.00 0.00 59 1008.6
20260510000032 86 140 0.0 0.0 0.00 0.00 0.00 59 1008.7
20260509235506 86 141 0.0 0.0 0.00 0.00 0.00 58 1008.3
20260509235009 86 251 0.0 0.0 0.00 0.00 0.00 57 1008.3
20260509234523 87 129 0.0 0.0 0.00 0.00 0.00 57 1008.2
20260509234003 87 148 0.0 0.9 0.00 0.00 0.00 56 1008.1
20260509233503 87 210 0.0 0.9 0.00 0.00 0.00 56 1008.1
20260509233014 87 214 0.0 0.0 0.00 0.00 0.00 55 1008.3
20260509232508 87 197 0.0 0.0 0.00 0.00 0.00 56 1008.4
20260509232012 88 181 0.0 0.0 0.00 0.00 0.00 55 1008.3
20260509231520 88 252 0.0 2.6 0.00 0.00 0.00 54 1008.4
20260509231007 88 168 0.0 2.6 0.00 0.00 0.00 53 1008.5
20260509230508 89 155 0.0 1.7 0.00 0.00 0.00 51 1008.4
20260509230025 89 167 0.0 1.7 0.00 0.00 0.00 54 1008.2
20260509225508 90 181 0.0 1.7 0.00 0.00 0.00 53 1008.1
20260509225007 90 210 0.0 1.7 0.00 0.00 0.00 52 1008.1
20260509224537 90 224 0.0 1.7 0.00 0.00 0.00 52 1008.1
20260509224008 90 148 0.0 3.5 0.00 0.00 0.00 52 1008.1
20260509223513 90 187 0.9 3.5 0.00 0.00 0.00 52 1007.9
20260509223012 90 225 0.0 3.5 0.00 0.00 0.00 53 1007.9
20260509222506 91 243 0.9 3.5 0.00 0.00 0.00 51 1007.9
20260509222005 91 224 0.9 3.5 0.00 0.00 0.00 51 1008.1
20260509221516 92 250 0.9 3.5 0.00 0.00 0.00 51 1008.1
20260509221004 92 174 0.0 2.6 0.00 0.00 0.00 52 1008.0
20260509220510 92 223 0.9 2.6 0.00 0.00 0.00 51 1008.0
20260509220019 92 229 0.9 3.5 0.00 0.00 0.00 48 1008.0
20260509215512 93 200 0.9 3.5 0.00 0.00 0.00 44 1008.0
20260509215009 93 224 0.0 3.5 0.00 0.00 0.00 46 1008.0
20260509214526 93 284 0.9 3.5 0.00 0.00 0.00 45 1008.1
20260509214008 93 254 0.0 1.7 0.00 0.00 0.00 45 1008.0
20260509213508 94 212 0.0 0.9 0.00 0.00 0.00 44 1008.0
20260509213028 94 235 0.0 2.6 0.00 0.00 0.00 45 1007.9
20260509212508 93 153 0.0 3.5 0.00 0.00 0.00 46 1007.9
20260509212009 93 240 0.0 3.5 0.00 0.00 0.00 47 1007.9
20260509211526 93 240 0.0 3.5 0.00 0.00 0.00 46 1008.0
20260509211004 94 273 0.0 3.5 0.00 0.00 0.00 46 1008.1
20260509210504 93 155 0.9 3.5 0.00 0.00 0.00 47 1008.1
20260509210018 93 268 0.0 1.7 0.00 0.00 0.00 45 1008.1
20260509205504 93 238 0.0 1.7 0.00 0.00 0.00 48 1008.2
20260509205008 93 254 0.0 0.9 0.00 0.00 0.00 47 1008.3
20260509204524 93 167 0.0 2.6 0.00 0.00 0.00 51 1008.3
20260509204009 93 214 0.9 2.6 0.00 0.00 0.00 49 1008.4
20260509203510 93 214 0.0 1.7 0.00 0.00 0.00 49 1008.5
20260509203029 93 195 0.0 3.5 0.00 0.00 0.00 50 1008.6
20260509202510 93 74 0.9 3.5 0.00 0.00 0.00 49 1008.6
20260509202015 92 314 0.0 3.5 0.00 0.00 0.00 55 1008.7
20260509201528 93 119 0.0 1.7 0.00 0.00 0.00 50 1008.7
20260509201011 93 148 0.0 0.9 0.00 0.00 0.00 53 1008.8
20260509200510 93 225 0.0 0.9 0.00 0.00 0.00 51 1008.9
20260509200029 92 165 0.0 0.9 0.00 0.00 0.00 51 1009.1
20260509195509 91 261 0.0 1.7 0.00 0.00 0.00 52 1008.9
20260509195005 91 245 0.0 1.7 0.00 0.00 0.00 52 1008.9
20260509194522 91 323 0.0 0.9 0.00 0.00 0.00 51 1009.0
20260509194011 91 264 0.0 1.7 0.00 0.00 0.00 51 1009.1
20260509193502 92 136 0.0 1.7 0.00 0.00 0.00 50 1009.2
20260509193008 91 168 0.0 1.7 0.00 0.00 0.00 52 1009.2
20260509192502 90 223 0.0 1.7 0.00 0.00 0.00 50 1009.4
20260509192002 90 155 0.0 0.0 0.00 0.00 0.00 54 1009.3
20260509191508 89 269 0.0 2.6 0.00 0.00 0.00 53 1009.3
20260509191003 89 171 0.0 2.6 0.00 0.00 0.00 53 1009.2
20260509190503 90 232 0.0 2.6 0.00 0.00 0.00 55 1009.3
20260509190012 90 207 0.0 0.9 0.00 0.00 0.00 57 1009.2
20260509185503 89 198 0.0 1.7 0.00 0.00 0.00 57 1009.3
20260509185008 89 309 0.0 1.7 0.00 0.01 0.00 58 1009.3
20260509184524 90 221 0.0 0.0 0.00 0.01 0.00 56 1009.4
20260509184007 90 357 0.0 0.0 0.00 0.01 0.00 59 1009.4
20260509183506 90 79 0.0 0.0 0.00 0.01 0.00 59 1009.6
20260509183020 90 289 0.0 0.0 0.00 0.02 0.00 62 1009.7
20260509182509 89 219 0.0 0.0 0.00 0.02 0.00 61 1009.7
20260509182003 89 255 0.0 1.7 0.00 0.02 0.00 60 1009.8
20260509181504 89 248 0.0 1.7 0.00 0.02 0.00 59 1009.8
20260509181003 89 166 0.0 0.0 0.00 0.02 0.00 61 1009.8
20260509180504 89 207 0.0 0.0 0.00 0.02 0.00 61 1010.0
20260509180010 88 315 0.0 0.0 0.00 0.02 0.00 66 1010.1
20260509175502 88 217 0.0 0.0 0.00 0.02 0.00 65 1010.3
20260509175002 87 224 0.0 1.7 0.00 0.02 0.00 67 1010.5
20260509174514 87 130 0.0 2.6 0.00 0.02 0.00 69 1010.6
20260509174005 87 343 0.0 2.6 0.00 0.02 0.00 71 1010.8
20260509173508 86 238 0.0 1.7 0.00 0.02 0.00 69 1010.9
20260509173019 86 244 0.0 1.7 0.00 0.02 0.00 71 1011.0
20260509172508 85 193 0.0 1.7 0.00 0.02 0.00 71 1011.1
20260509172005 84 226 0.0 0.9 0.00 0.02 0.00 74 1011.0
20260509171520 83 229 0.0 2.6 0.00 0.02 0.00 78 1011.1
20260509171007 83 256 0.9 2.6 0.00 0.02 0.00 77 1011.1
20260509170505 82 145 0.0 0.0 0.00 0.02 0.00 80 1011.0
20260509170005 81 144 0.0 0.0 0.00 0.02 0.00 81 1011.1
20260509165502 81 241 0.0 0.0 0.00 0.02 0.00 81 1011.1
20260509165002 81 147 0.0 0.0 0.00 0.02 0.00 81 1011.2
20260509164512 81 148 0.0 0.0 0.00 0.02 0.00 80 1011.2
20260509164006 81 259 0.0 0.0 0.00 0.02 0.00 80 1011.2
20260509163505 81 269 0.0 0.0 0.00 0.02 0.00 81 1011.2
20260509163021 81 160 0.0 0.0 0.00 0.02 0.00 80 1011.1
20260509162511 81 160 0.0 0.0 0.00 0.02 0.00 80 1010.9
20260509162005 81 134 0.0 0.0 0.00 0.02 0.00 82 1011.0
20260509161520 81 134 0.0 0.0 0.00 0.02 0.00 83 1010.9
20260509161011 81 134 0.0 0.0 0.00 0.02 0.00 84 1010.9
20260509160508 80 134 0.0 0.0 0.00 0.02 0.00 83 1010.8
20260509160025 80 134 0.0 0.9 0.00 0.02 0.00 84 1010.7
20260509155510 80 134 0.0 0.9 0.00 0.02 0.00 83 1010.9
20260509155003 80 189 0.0 0.0 0.00 0.02 0.00 85 1010.9
20260509154513 80 189 0.0 0.0 0.00 0.02 0.00 85 1010.7
20260509154003 80 188 0.0 0.0 0.00 0.02 0.00 86 1010.8
20260509153502 79 188 0.0 0.0 0.00 0.02 0.00 86 1010.7
20260509153012 79 172 0.0 0.0 0.00 0.02 0.00 87 1010.6
20260509152506 79 172 0.0 0.0 0.00 0.02 0.00 87 1010.6
20260509152006 78 167 0.0 0.0 0.00 0.02 0.00 88 1010.6
20260509151518 78 167 0.0 0.0 0.00 0.02 0.00 88 1010.4
20260509151008 78 167 0.0 0.0 0.00 0.02 0.00 89 1010.4
20260509150512 77 167 0.0 0.0 0.00 0.02 0.00 90 1010.4
20260509150024 77 141 0.0 0.0 0.00 0.02 0.00 90 1010.4
20260509145507 77 183 0.0 1.7 0.00 0.02 0.00 91 1010.4
20260509145007 77 155 0.0 1.7 0.00 0.02 0.00 91 1010.4
20260509144522 77 218 0.0 1.7 0.00 0.02 0.00 91 1010.5
20260509144010 76 248 0.0 1.7 0.00 0.02 0.00 91 1010.4
20260509143503 76 219 0.0 0.0 0.00 0.02 0.00 92 1010.3
20260509143012 76 219 0.0 0.0 0.00 0.02 0.00 92 1010.2
20260509142504 76 219 0.0 0.0 0.00 0.02 0.00 92 1010.1
20260509142010 76 219 0.0 0.0 0.00 0.02 0.00 92 1010.0
20260509141533 76 221 0.0 0.0 0.00 0.02 0.00 92 1010.0
20260509141006 76 166 0.0 0.0 0.00 0.02 0.00 92 1009.9
20260509140507 76 166 0.0 0.0 0.00 0.02 0.00 93 1009.8
20260509140019 76 165 0.0 0.0 0.00 0.02 0.00 93 1009.8
20260509135510 76 165 0.0 0.0 0.00 0.02 0.00 93 1010.0
20260509135009 76 165 0.0 0.0 0.00 0.03 0.00 93 1010.0
20260509134530 76 165 0.0 0.0 0.00 0.03 0.00 94 1010.1
20260509134009 76 186 0.0 0.0 0.00 0.03 0.00 94 1010.6
20260509133509 75 186 0.0 0.0 0.00 0.03 0.00 94 1010.7
20260509133027 75 186 0.0 0.0 0.00 0.03 0.00 94 1010.6
20260509132513 75 307 0.0 0.0 0.00 0.04 0.00 94 1010.9
20260509132010 75 311 0.0 0.0 0.00 0.05 0.00 94 1011.3
20260509131529 75 331 0.0 0.0 0.00 0.05 0.00 94 1011.3
20260509131015 75 79 0.0 0.0 0.00 0.05 0.00 94 1011.2
20260509130511 75 153 0.0 0.0 0.00 0.05 0.00 95 1010.9
20260509130026 75 153 0.0 0.0 0.00 0.05 0.00 95 1010.8
20260509125510 75 153 0.0 0.0 0.00 0.05 0.00 94 1010.9
20260509125004 75 154 0.0 0.0 0.00 0.05 0.00 95 1010.9
20260509124521 74 154 0.0 0.0 0.00 0.05 0.00 95 1010.8
20260509124008 74 154 0.0 0.0 0.00 0.05 0.00 94 1010.8
20260509123509 74 158 0.0 0.0 0.00 0.05 0.00 94 1010.7
20260509123024 74 162 0.0 0.0 0.00 0.05 0.00 95 1010.8
20260509122510 74 185 0.0 0.0 0.00 0.05 0.00 95 1010.9
20260509122010 74 186 0.0 0.0 0.00 0.05 0.00 94 1010.9
20260509121530 74 186 0.0 0.0 0.00 0.05 0.00 94 1010.9
20260509121008 74 186 0.0 0.0 0.00 0.05 0.00 94 1010.7
20260509120509 74 219 0.0 0.0 0.00 0.05 0.00 95 1010.6
20260509120026 74 219 0.0 0.0 0.00 0.05 0.00 94 1010.7
20260509115511 74 219 0.0 0.0 0.00 0.05 0.00 94 1010.4
20260509115007 74 219 0.0 0.0 0.00 0.05 0.00 94 1010.4
20260509114533 74 219 0.0 0.0 0.00 0.05 0.00 94 1010.6
20260509114013 74 219 0.0 0.0 0.00 0.05 0.00 94 1010.5
20260509113510 74 219 0.0 0.0 0.00 0.05 0.00 94 1010.5
20260509113024 74 219 0.0 0.0 0.00 0.05 0.00 94 1010.3
20260509112510 74 219 0.0 0.0 0.00 0.05 0.00 94 1010.2
20260509112013 74 219 0.0 0.0 0.00 0.05 0.00 94 1010.3
20260509111523 74 219 0.0 0.0 0.00 0.05 0.00 94 1010.2
20260509111011 74 219 0.0 0.0 0.00 0.05 0.00 94 1010.2
20260509110511 74 219 0.0 0.0 0.00 0.05 0.00 94 1010.3
20260509110026 74 219 0.0 0.0 0.00 0.05 0.00 94 1010.2
20260509105506 74 219 0.0 0.0 0.00 0.05 0.00 94 1010.1
20260509105004 74 219 0.0 0.0 0.00 0.05 0.00 94 1009.9
20260509104515 74 219 0.0 0.0 0.00 0.05 0.00 94 1010.1
20260509104004 74 219 0.0 0.0 0.00 0.05 0.00 94 1010.1
20260509103505 74 219 0.0 0.0 0.00 0.05 0.00 94 1010.1
20260509103004 74 219 0.0 0.0 0.00 0.05 0.00 94 1010.1
20260509102502 74 219 0.0 0.0 0.00 0.05 0.00 94 1010.0
20260509102003 74 219 0.0 0.0 0.00 0.05 0.00 94 1010.0
20260509101513 74 219 0.0 0.0 0.00 0.05 0.00 94 1010.0
20260509101002 74 219 0.0 0.0 0.00 0.05 0.00 94 1010.0
20260509100502 74 219 0.0 0.0 0.00 0.05 0.00 94 1009.9
20260509100009 74 219 0.0 0.0 0.00 0.05 0.00 94 1009.9
20260509095505 74 219 0.0 0.0 0.00 0.05 0.00 94 1010.1
20260509095003 74 219 0.0 0.0 0.00 0.05 0.00 94 1009.7
20260509094517 74 219 0.0 0.0 0.00 0.05 0.00 94 1009.7
20260509094004 74 219 0.0 0.0 0.00 0.05 0.00 94 1009.7